Radiation Dose at Monitoring Post of Fukushima Daini Nuclear Power Station
Date,Time,MP-1(microSv/h),MP-2(microSv/h),MP-3(microSv/h),MP-4(microSv/h),MP-5(microSv/h),MP-6(microSv/h),MP-7(microSv/h),Wind Direction,Wind Velocity(m/s),Rain
2021/05/23,00:00,0.162,0.149,0.232,0.225,0.230,0.128,0.082,northeast,1.7,No
2021/05/23,00:10,0.162,0.148,0.231,0.225,0.228,0.127,0.081,northeast,1.0,No
2021/05/23,00:20,0.161,0.146,0.230,0.223,0.230,0.126,0.080,-,CALM,No
2021/05/23,00:30,0.160,0.147,0.229,0.224,0.227,0.126,0.079,north,1.7,No
2021/05/23,00:40,0.159,0.145,0.228,0.221,0.228,0.125,0.080,northwest,1.9,No
2021/05/23,00:50,0.159,0.146,0.229,0.223,0.227,0.124,0.078,northwest,3.9,No
2021/05/23,01:00,0.160,0.145,0.228,0.222,0.229,0.124,0.079,north,3.0,No
2021/05/23,01:10,0.160,0.146,0.228,0.222,0.226,0.124,0.078,north,2.2,No
2021/05/23,01:20,0.159,0.146,0.229,0.221,0.228,0.123,0.078,north,1.2,No
2021/05/23,01:30,0.159,0.145,0.228,0.222,0.225,0.123,0.079,north,3.5,No
2021/05/23,01:40,0.159,0.147,0.229,0.221,0.227,0.123,0.078,north-northwest,2.9,No
2021/05/23,01:50,0.159,0.144,0.227,0.221,0.227,0.124,0.077,north,2.8,No
2021/05/23,02:00,0.158,0.145,0.229,0.221,0.227,0.123,0.078,north,3.1,No
2021/05/23,02:10,0.157,0.145,0.229,0.221,0.226,0.123,0.078,north,2.7,No
2021/05/23,02:20,0.159,0.146,0.229,0.222,0.228,0.123,0.077,north-northwest,1.2,No
2021/05/23,02:30,0.158,0.145,0.229,0.221,0.226,0.124,0.078,north,2.4,No
2021/05/23,02:40,0.159,0.145,0.229,0.222,0.227,0.124,0.078,north-northwest,2.9,No
2021/05/23,02:50,0.159,0.145,0.229,0.221,0.227,0.123,0.078,north,1.6,No
2021/05/23,03:00,0.159,0.145,0.228,0.222,0.229,0.124,0.078,north-northwest,2.2,Yes
2021/05/23,03:10,0.160,0.146,0.230,0.222,0.228,0.125,0.078,north,2.6,Yes
2021/05/23,03:20,0.161,0.147,0.231,0.224,0.229,0.127,0.081,north-northwest,3.3,Yes
2021/05/23,03:30,0.162,0.148,0.233,0.225,0.230,0.127,0.081,northwest,1.9,Yes
2021/05/23,03:40,0.162,0.149,0.232,0.225,0.229,0.129,0.082,north-northwest,2.0,Yes
2021/05/23,03:50,0.163,0.149,0.232,0.226,0.232,0.128,0.082,north,2.1,Yes
2021/05/23,04:00,0.161,0.149,0.233,0.226,0.230,0.128,0.081,north,1.8,No
2021/05/23,04:10,0.163,0.148,0.230,0.225,0.231,0.127,0.082,north-northwest,1.6,Yes
2021/05/23,04:20,0.162,0.149,0.232,0.224,0.228,0.128,0.081,north,2.2,Yes
2021/05/23,04:30,0.162,0.150,0.232,0.224,0.230,0.127,0.082,north,2.2,No
2021/05/23,04:40,0.161,0.149,0.231,0.225,0.229,0.127,0.081,north-northeast,1.7,No
2021/05/23,04:50,0.162,0.149,0.231,0.224,0.229,0.126,0.080,north-northeast,2.1,No
2021/05/23,05:00,0.162,0.148,0.230,0.223,0.228,0.126,0.079,northeast,2.3,No
2021/05/23,05:10,0.162,0.147,0.231,0.223,0.230,0.126,0.080,north,1.1,Yes
2021/05/23,05:20,0.161,0.145,0.229,0.223,0.228,0.125,0.080,-,CALM,No
2021/05/23,05:30,0.160,0.147,0.230,0.222,0.228,0.126,0.079,-,CALM,No
2021/05/23,05:40,0.162,0.147,0.229,0.223,0.227,0.126,0.079,northeast,0.8,No
2021/05/23,05:50,0.159,0.146,0.230,0.222,0.227,0.125,0.080,-,CALM,No
2021/05/23,06:00,0.162,0.146,0.228,0.223,0.227,0.125,0.079,-,CALM,No
2021/05/23,06:10,0.160,0.146,0.230,0.222,0.228,0.124,0.079,-,CALM,No
2021/05/23,06:20,0.160,0.147,0.229,0.222,0.227,0.124,0.079,-,CALM,No
2021/05/23,06:30,0.160,0.146,0.229,0.221,0.228,0.124,0.078,-,CALM,No
2021/05/23,06:40,0.160,0.147,0.228,0.222,0.227,0.125,0.079,-,CALM,Yes
2021/05/23,06:50,0.160,0.145,0.229,0.222,0.228,0.124,0.078,-,CALM,Yes
2021/05/23,07:00,0.161,0.147,0.231,0.223,0.226,0.125,0.079,-,CALM,Yes
2021/05/23,07:10,0.160,0.146,0.229,0.223,0.229,0.125,0.079,-,CALM,Yes
2021/05/23,07:20,0.161,0.148,0.231,0.224,0.226,0.126,0.079,east,0.6,No
2021/05/23,07:30,0.160,0.147,0.231,0.221,0.228,0.124,0.079,-,CALM,No
2021/05/23,07:40,0.161,0.146,0.230,0.223,0.226,0.126,0.079,-,CALM,No
2021/05/23,07:50,0.159,0.145,0.229,0.222,0.229,0.125,0.079,north-northeast,0.7,No
2021/05/23,08:00,0.161,0.147,0.227,0.223,0.227,0.125,0.079,east-southeast,0.9,No
2021/05/23,08:10,0.160,0.145,0.230,0.221,0.226,0.125,0.078,southeast,1.2,No
2021/05/23,08:20,0.160,0.146,0.228,0.222,0.227,0.125,0.079,east,1.4,No
2021/05/23,08:30,0.160,0.145,0.230,0.222,0.226,0.125,0.078,east-southeast,1.8,No
2021/05/23,08:40,0.159,0.146,0.229,0.221,0.230,0.125,0.079,southeast,1.5,No
2021/05/23,08:50,0.160,0.146,0.228,0.224,0.226,0.125,0.079,east-southeast,1.7,No
2021/05/23,09:00,0.159,0.144,0.229,0.222,0.226,0.124,0.078,southeast,1.6,No
2021/05/23,09:10,0.160,0.145,0.229,0.223,0.228,0.125,0.078,east,2.2,No
2021/05/23,09:20,0.161,0.146,0.229,0.224,0.225,0.125,0.079,east,2.0,No
2021/05/23,09:30,0.160,0.146,0.231,0.222,0.229,0.125,0.078,east-southeast,1.9,No
2021/05/23,09:40,0.161,0.147,0.228,0.225,0.227,0.126,0.079,east-southeast,2.2,No
2021/05/23,09:50,0.160,0.146,0.231,0.222,0.227,0.124,0.078,east-southeast,2.0,No
2021/05/23,10:00,0.162,0.145,0.230,0.222,0.229,0.125,0.078,east-southeast,2.3,No
2021/05/23,10:10,0.161,0.145,0.231,0.224,0.226,0.125,0.078,east-southeast,2.1,No
2021/05/23,10:20,0.160,0.146,0.231,0.222,0.229,0.125,0.078,east-southeast,1.8,No
2021/05/23,10:30,0.161,0.145,0.229,0.226,0.227,0.125,0.079,southeast,1.6,No
2021/05/23,10:40,0.159,0.145,0.231,0.224,0.226,0.125,0.079,southeast,2.0,No
2021/05/23,10:50,0.162,0.146,0.230,0.223,0.229,0.125,0.078,south-southeast,2.4,No
2021/05/23,11:00,0.161,0.146,0.230,0.224,0.227,0.125,0.079,south-southeast,2.4,No
2021/05/23,11:10,0.160,0.146,0.231,0.222,0.228,0.125,0.078,south-southeast,2.4,No
2021/05/23,11:20,0.161,0.146,0.230,0.225,0.230,0.126,0.079,south-southeast,2.1,No
2021/05/23,11:30,0.159,0.145,0.231,0.225,0.227,0.125,0.079,south-southeast,2.7,No
2021/05/23,11:40,0.162,0.147,0.232,0.222,0.225,0.125,0.078,south-southeast,3.3,No
2021/05/23,11:50,0.162,0.146,0.230,0.223,0.227,0.126,0.078,southeast,2.6,No
2021/05/23,12:00,0.159,0.146,0.232,0.226,0.229,0.125,0.079,south-southeast,2.6,No
2021/05/23,12:10,0.161,0.146,0.231,0.224,0.227,0.125,0.078,south-southeast,3.8,No
2021/05/23,12:20,0.161,0.146,0.230,0.223,0.228,0.126,0.078,south-southeast,3.7,No
2021/05/23,12:30,0.160,0.147,0.233,0.226,0.231,0.126,0.078,south,3.8,No
2021/05/23,12:40,0.163,0.146,0.232,0.224,0.228,0.126,0.078,south-southeast,3.7,Yes
2021/05/23,12:50,0.161,0.147,0.233,0.226,0.230,0.126,0.079,south-southeast,5.5,Yes
2021/05/23,13:00,0.163,0.147,0.232,0.226,0.231,0.126,0.079,south-southeast,4.9,No
2021/05/23,13:10,0.162,0.147,0.233,0.225,0.229,0.127,0.079,south,4.7,No
2021/05/23,13:20,0.161,0.148,0.233,0.226,0.230,0.126,0.079,south,4.6,No
2021/05/23,13:30,0.163,0.146,0.230,0.224,0.229,0.127,0.079,south,4.9,No
2021/05/23,13:40,0.161,0.148,0.233,0.226,0.230,0.126,0.079,south,4.9,No
2021/05/23,13:50,0.162,0.147,0.231,0.224,0.229,0.126,0.078,south,5.0,No
2021/05/23,14:00,0.162,0.147,0.232,0.226,0.228,0.127,0.079,south,4.5,No
2021/05/23,14:10,0.161,0.147,0.232,0.224,0.230,0.127,0.079,south,4.9,No
2021/05/23,14:20,0.162,0.147,0.231,0.226,0.229,0.127,0.078,south,2.6,No
2021/05/23,14:30,0.160,0.148,0.234,0.226,0.229,0.127,0.079,south,1.9,No
2021/05/23,14:40,0.161,0.146,0.231,0.224,0.230,0.125,0.078,south-southeast,3.3,No
2021/05/23,14:50,0.161,0.148,0.230,0.226,0.227,0.126,0.080,south-southeast,3.5,No
2021/05/23,15:00,0.160,0.147,0.233,0.226,0.228,0.126,0.079,south-southeast,4.8,No
2021/05/23,15:10,0.163,0.147,0.232,0.223,0.231,0.126,0.079,south,5.0,No
2021/05/23,15:20,0.162,0.148,0.232,0.227,0.227,0.126,0.080,south,4.4,No
2021/05/23,15:30,0.161,0.146,0.233,0.226,0.228,0.126,0.078,south,5.1,No
2021/05/23,15:40,0.160,0.146,0.231,0.225,0.230,0.126,0.079,south,3.9,No
2021/05/23,15:50,0.162,0.147,0.234,0.227,0.228,0.126,0.079,south,2.8,No
2021/05/23,16:00,0.162,0.147,0.233,0.224,0.229,0.126,0.079,west-southwest,3.1,No
2021/05/23,16:10,0.161,0.147,0.231,0.225,0.230,0.126,0.078,west,5.3,No
2021/05/23,16:20,0.162,0.147,0.234,0.226,0.227,0.128,0.079,west,4.6,No
2021/05/23,16:30,0.163,0.147,0.231,0.225,0.227,0.126,0.078,west,4.2,No
2021/05/23,16:40,0.161,0.148,0.232,0.228,0.231,0.126,0.079,west,5.5,No
2021/05/23,16:50,0.160,0.147,0.233,0.226,0.230,0.127,0.078,west,3.6,No
2021/05/23,17:00,0.163,0.147,0.231,0.224,0.229,0.126,0.079,west,5.6,No
2021/05/23,17:10,0.162,0.148,0.234,0.228,0.227,0.126,0.079,west,6.2,No
2021/05/23,17:20,0.161,0.147,0.233,0.226,0.226,0.127,0.079,west,4.4,No
2021/05/23,17:30,0.163,0.148,0.233,0.225,0.227,0.127,0.079,west,3.7,No
2021/05/23,17:40,0.163,0.147,0.235,0.227,0.228,0.127,0.078,west,4.4,No
2021/05/23,17:50,0.163,0.147,0.231,0.226,0.232,0.127,0.078,west,3.0,No
2021/05/23,18:00,0.163,0.148,0.235,0.227,0.229,0.127,0.079,west,4.4,No
2021/05/23,18:10,0.162,0.147,0.232,0.226,0.227,0.127,0.079,west-southwest,4.2,No
2021/05/23,18:20,0.162,0.148,0.233,0.227,0.231,0.126,0.078,west,4.4,No
2021/05/23,18:30,0.164,0.147,0.234,0.226,0.231,0.127,0.079,west-northwest,2.9,No
2021/05/23,18:40,0.162,0.147,0.234,0.228,0.231,0.126,0.079,west,3.6,No
2021/05/23,18:50,0.162,0.147,0.232,0.225,0.232,0.127,0.079,northwest,1.9,No
2021/05/23,19:00,0.162,0.149,0.234,0.226,0.229,0.127,0.079,west,4.8,No
2021/05/23,19:10,0.162,0.147,0.234,0.226,0.232,0.127,0.079,west,12.0,No
2021/05/23,19:20,0.163,0.148,0.233,0.227,0.229,0.127,0.079,west,12.0,No
2021/05/23,19:30,0.163,0.147,0.233,0.226,0.232,0.127,0.080,west,11.2,No
2021/05/23,19:40,0.163,0.148,0.233,0.227,0.228,0.128,0.080,west-northwest,11.5,No
2021/05/23,19:50,0.163,0.148,0.234,0.226,0.232,0.127,0.079,west,10.1,No
2021/05/23,20:00,0.163,0.149,0.233,0.226,0.229,0.127,0.078,west,9.2,No
2021/05/23,20:10,0.163,0.148,0.235,0.226,0.232,0.128,0.078,west,9.6,No
2021/05/23,20:20,0.162,0.148,0.233,0.227,0.229,0.128,0.079,west,9.8,No
2021/05/23,20:30,0.162,0.147,0.235,0.227,0.229,0.126,0.079,west,10.9,No
2021/05/23,20:40,0.163,0.149,0.233,0.228,0.230,0.127,0.080,west,12.6,No
2021/05/23,20:50,0.162,0.148,0.235,0.227,0.230,0.127,0.079,west,11.7,No
2021/05/23,21:00,0.164,0.147,0.232,0.226,0.230,0.126,0.079,west,11.5,No
2021/05/23,21:10,0.163,0.148,0.234,0.226,0.230,0.128,0.079,west,10.3,No
2021/05/23,21:20,0.164,0.149,0.234,0.228,0.230,0.127,0.079,west-northwest,5.2,No
2021/05/23,21:30,0.163,0.148,0.234,0.227,0.228,0.127,0.079,west-northwest,2.3,No
2021/05/23,21:40,0.164,0.148,0.234,0.228,0.231,0.127,0.079,north-northwest,2.4,No
2021/05/23,21:50,0.164,0.147,0.235,0.227,0.229,0.128,0.079,north,4.0,No
2021/05/23,22:00,0.163,0.147,0.234,0.227,0.230,0.126,0.080,north,1.1,No
2021/05/23,22:10,0.163,0.148,0.233,0.227,0.229,0.128,0.079,west,2.7,No
2021/05/23,22:20,0.162,0.148,0.234,0.226,0.231,0.127,0.079,west,3.9,No
2021/05/23,22:30,0.163,0.148,0.233,0.227,0.228,0.127,0.079,southwest,1.0,No
2021/05/23,22:40,0.162,0.148,0.234,0.226,0.231,0.127,0.079,east-northeast,3.4,No
2021/05/23,22:50,0.163,0.148,0.233,0.229,0.229,0.128,0.079,east-northeast,1.3,No
2021/05/23,23:00,0.162,0.148,0.234,0.227,0.232,0.126,0.080,east-northeast,2.3,No
2021/05/23,23:10,0.163,0.149,0.233,0.228,0.228,0.128,0.079,northeast,2.5,No
2021/05/23,23:20,0.163,0.148,0.234,0.226,0.231,0.126,0.078,north,1.2,No
2021/05/23,23:30,0.163,0.149,0.233,0.227,0.229,0.127,0.079,west,0.6,No
2021/05/23,23:40,0.163,0.147,0.234,0.227,0.230,0.128,0.079,north-northwest,1.9,No
2021/05/23,23:50,0.164,0.148,0.233,0.228,0.229,0.127,0.079,-,CALM,No
